Dewpoint
44 44 45 45 45 46 46 47 47 46 46 42 41 41 38 36 35 37 37 41 42 40 36 40 36 33 32 33 31 31 30 28 26 23 21 17 15 23 21 22 17 22 21 19 16 15 21 18 22 33 28 25 24 21 22 26 24 24 27 25 26 48 18 11 15 19 17 17 17 17 16 15 16 21 23 22 17 23 21 21 24 19 19 10 16 13 19
44 44 45 45 46 46 46 47 47 47 46 44 42 38 38 37 37 37 39 43 43 36 31 31 31 31 31 29 25 25 25 23 21 19 17 15 23 26 26 19 16 21 19 20 19 16 19 19 24 26 23 30 31 24 25 32 25 27 28 22 31 18 24 15 13 15 19 18 19 17 17 16 18 15 21 19 22 25 26 25 25 19 20 18 18 11 18
44 44 45 45 46 46 46 47 47 46 46 46 40 36 38 38 40 40 40 40 42 40 38 31 26 33 32 31 30 30 27 22 21 19 21 19 18 23 21 19 19 19 20 21 19 17 15 23 23 30 21 21 25 24 24 27 27 34 36 43 28 27 24 25 14 7 2 5 8 10 13 12 17 22 18 21 18 22 20 13 17 16 19 25 22 19 28
43 44 44 45 45 46 46 46 46 46 46 46 41 41 39 36 28 33 37 36 38 39 41 34 28 27 27 22 27 30 26 25 23 21 20 24 23 23 24 25 23 23 22 23 21 19 25 23 28 25 24 20 20 24 24 29 29 41 47 38 36 24 28 26 22 17 14 20 23 24 15 18 11 13 15 21 25 27 23 21 20 16 16 13 21 25 25
43 43 44 45 45 46 46 46 45 45 45 46 40 38 38 38 32 30 30 35 37 38 37 32 32 27 31 20 29 27 29 28 24 24 27 24 27 26 25 25 27 28 26 26 27 28 24 31 27 28 28 23 26 25 27 32 40 36 36 38 25 27 21 23 27 25 20 21 15 16 16 13 13 14 17 21 23 23 19 11 11 21 17 13 22 28 24
43 43 43 45 45 46 46 46 46 45 45 46 38 28 30 30 33 37 35 33 31 32 32 34 33 29 30 28 31 28 28 27 24 24 29 25 25 28 24 24 23 25 30 28 24 28 28 28 26 29 28 28 28 20 21 22 38 33 22 34 27 24 18 23 22 22 17 17 19 18 16 14 16 16 21 18 22 22 17 17 21 21 12 17 20 25 23
43 44 44 44 45 45 46 46 46 45 44 45 26 24 27 33 32 36 36 34 40 38 36 37 35 29 30 29 26 26 26 26 24 26 30 29 28 25 23 25 22 23 24 27 25 26 25 23 30 27 27 30 28 25 25 21 21 21 25 26 31 22 20 25 18 21 20 19 18 18 16 18 17 20 21 22 23 22 22 22 24 25 23 23 25 25 24
44 44 44 44 45 45 46 46 46 45 44 42 28 27 25 25 28 32 36 37 37 39 36 36 29 26 28 26 28 23 24 26 26 24 25 24 26 27 27 22 22 22 22 23 23 25 28 25 22 28 26 26 25 24 24 21 24 20 24 27 26 24 20 29 27 22 21 20 19 18 18 19 20 22 24 25 24 24 26 26 25 26 24 25 25 23 23
43 44 44 44 45 46 46 46 46 44 44 39 37 30 29 29 33 32 31 31 29 32 29 30 30 25 25 24 24 25 22 25 25 25 25 24 28 28 28 25 22 21 21 23 23 24 26 27 27 28 27 22 28 21 25 17 22 21 25 28 27 28 20 27 26 19 19 21 17 20 19 20 22 24 26 27 24 22 25 24 26 22 21 23 23 22 19
44 44 44 44 45 45 46 46 46 45 44 41 38 32 33 32 34 35 33 27 29 26 25 25 27 25 27 26 22 22 23 23 27 26 26 25 24 27 25 28 22 22 22 22 23 23 24 23 20 21 21 21 19 18 17 15 19 21 20 28 23 24 20 18 19 19 15 21 21 18 20 18 17 19 25 29 26 26 26 26 28 27 25 23 21 19 24
43 43 44 44 44 45 46 46 46 45 43 40 40 38 36 33 32 34 33 26 22 22 24 23 25 28 27 23 23 23 23 25 26 27 24 26 25 24 24 25 24 21 22 25 21 21 21 20 20 22 20 21 20 20 17 16 15 14 22 22 25 26 25 20 22 14 12 20 22 23 14 6 11 23 30 32 25 25 25 25 26 27 28 23 25 25 26
43 43 44 44 44 45 45 46 46 46 44 42 40 39 38 37 35 34 28 24 20 23 22 22 25 28 25 23 23 24 23 23 26 31 26 29 27 27 22 24 27 22 22 24 23 21 21 23 21 18 19 18 18 19 19 17 15 13 15 18 19 19 22 20 20 16 12 16 17 12 6 10 22 28 30 30 27 26 25 26 26 26 28 27 25 25 25
43 44 44 44 44 45 45 45 46 46 46 43 40 38 40 40 35 33 29 26 23 22 22 22 23 24 25 25 24 24 25 25 26 31 31 27 24 24 22 23 23 19 23 22 22 22 20 23 23 22 19 17 15 15 14 15 14 16 14 17 20 18 19 18 14 18 14 12 8 3 4 17 29 30 28 33 29 29 25 23 25 27 25 27 24 25 25
43 44 44 43 44 44 45 45 46 46 46 44 40 39 41 38 35 33 30 28 26 24 24 23 22 24 26 26 25 25 24 26 26 27 26 27 22 20 20 18 18 21 22 25 27 26 26 26 19 19 20 16 23 22 19 15 14 14 14 13 22 23 22 20 14 18 11 10 11 11 18 19 23 23 25 27 24 26 23 20 21 27 25 25 24 24 24
43 43 43 43 43 44 45 45 46 46 46 45 40 39 40 39 37 34 34 30 28 24 21 22 24 25 25 25 26 25 25 26 26 26 25 25 22 22 21 20 19 21 24 21 21 25 20 22 20 17 19 13 6 11 19 14 14 18 20 17 15 22 18 19 14 13 19 13 11 10 9 7 15 26 29 30 30 30 28 22 22 28 24 26 24 23 24
43 43 43 43 44 44 44 45 45 46 46 45 40 39 40 40 38 37 35 30 28 23 20 26 28 27 24 25 25 26 25 25 26 27 26 24 20 22 23 23 23 25 19 19 24 20 23 21 16 13 11 15 18 12 14 14 15 18 20 22 24 25 25 22 17 16 16 13 10 7 6 6 21 27 28 29 28 29 28 23 21 24 25 26 23 22 24
43 43 43 43 43 44 44 45 46 46 46 45 40 39 38 40 39 36 35 33 24 18 20 21 29 28 22 23 24 25 27 25 26 24 25 25 22 23 25 25 23 22 20 24 22 22 22 19 22 20 19 19 13 12 21 19 20 19 17 21 24 24 26 25 21 18 19 15 13 14 22 21 26 28 28 27 27 29 22 12 12 22 24 25 22 20 22
43 43 43 43 43 44 44 45 45 46 46 46 42 38 38 41 41 36 36 32 25 19 21 23 24 22 21 22 23 26 30 29 27 28 24 26 23 24 26 23 19 22 26 22 21 24 22 20 16 18 15 21 23 23 13 19 18 17 17 21 22 24 26 25 17 17 21 21 17 22 25 29 31 28 29 27 30 22 14 9 16 23 24 23 22 21 22
42 43 43 43 43 43 44 45 46 46 46 45 41 38 37 40 41 35 35 34 27 21 19 21 23 24 24 25 27 28 28 27 27 26 26 27 24 26 27 24 24 20 22 21 24 20 19 18 24 19 17 18 24 17 20 17 17 17 18 17 19 21 22 25 25 21 17 18 19 18 23 28 30 30 30 26 24 17 15 21 25 25 23 23 22 22 22
42 42 43 43 43 43 45 45 46 46 46 45 42 36 38 41 41 36 32 29 30 26 24 23 22 19 22 25 23 24 24 26 26 26 24 23 27 28 25 23 25 22 24 25 23 22 20 17 17 19 17 16 21 27 18 17 18 17 19 20 18 18 20 20 20 21 21 19 18 17 16 25 33 31 26 23 21 20 24 24 25 27 25 24 24 24 24
42 42 42 43 43 44 45 45 46 46 46 46 43 36 36 38 40 38 35 34 29 22 22 27 21 19 21 25 27 27 27 23 25 24 26 27 28 26 17 18 21 20 19 20 18 19 18 17 19 14 17 16 17 18 11 15 19 16 18 19 20 22 22 19 20 23 17 18 17 18 23 24 31 25 21 21 23 23 24 23 23 25 26 24 24 24 26
41 42 42 42 43 44 45 46 46 46 47 46 43 36 34 37 39 38 38 36 30 23 22 24 23 22 23 25 26 27 25 27 29 29 27 25 27 26 25 25 23 23 23 24 23 20 23 19 20 15 11 15 20 12 15 11 10 15 19 20 17 17 21 19 16 18 19 17 20 20 25 23 23 24 24 25 26 26 26 25 24 24 24 26 24 25 26
41 41 42 43 43 44 45 46 46 46 46 46 43 36 34 37 37 38 35 31 31 33 34 26 30 25 25 21 23 24 25 29 34 33 32 27 26 26 25 24 23 26 27 26 21 20 21 20 15 16 18 18 16 13 16 16 13 16 14 20 19 18 20 21 18 18 21 22 22 25 21 23 24 26 27 25 26 26 27 26 24 25 26 26 25 26 27
40 41 42 43 43 44 45 46 46 46 46 46 44 36 37 38 39 35 33 33 30 26 29 26 24 19 22 21 18 19 24 27 32 31 33 32 25 25 27 28 27 26 24 25 23 21 21 18 20 18 14 19 20 14 11 11 12 17 18 15 22 16 17 18 14 19 19 13 23 23 22 24 26 26 28 28 27 27 27 26 26 26 27 27 27 27 28
42 41 42 43 44 44 45 45 46 46 46 46 43 40 39 38 37 36 32 27 29 28 22 26 24 21 17 16 15 15 18 27 32 29 30 30 24 23 22 25 30 23 22 25 28 26 24 16 18 16 16 20 20 13 19 14 16 20 14 18 18 15 18 15 16 16 14 14 22 23 25 25 27 27 26 26 27 28 28 28 28 29 29 29 29 29 29
42 42 42 43 44 44 44 45 46 46 46 45 44 37 36 37 38 36 36 34 32 26 24 23 22 28 22 18 14 15 19 19 20 26 31 29 27 30 27 30 28 32 29 31 29 23 23 22 19 19 17 19 23 16 15 17 16 20 15 14 18 16 24 10 15 14 17 21 24 24 23 25 26 27 27 28 28 29 29 30 30 30 30 30 30 30 30
42 42 42 43 43 44 45 45 45 46 46 46 43 39 38 39 37 35 34 33 28 24 27 24 26 29 25 27 23 18 19 19 22 21 21 23 28 31 31 26 25 28 28 25 27 23 25 22 20 18 21 18 20 19 19 16 16 13 14 18 23 22 20 21 18 12 13 18 21 24 16 17 23 26 27 29 30 30 30 30 30 30 30 30 30 30 31
43 43 42 43 43 44 44 45 45 46 46 45 43 40 40 37 34 35 36 37 31 27 25 24 25 28 29 29 29 18 15 22 22 23 18 23 28 30 25 25 26 24 25 23 23 25 23 15 16 22 19 20 18 14 21 18 20 20 20 21 24 21 21 21 13 12 13 21 25 25 23 23 26 26 28 30 31 31 31 30 30 30 30 30 30 30 30
42 42 42 43 43 44 45 45 45 46 46 44 39 39 38 38 37 35 36 39 37 33 28 28 30 26 18 22 26 17 16 25 26 26 28 24 24 29 24 25 24 28 26 24 23 23 21 21 24 19 17 21 19 13 14 9 12 13 18 22 25 25 26 25 23 23 24 25 26 26 24 24 26 28 29 31 31 31 30 30 30 29 30 30 30 29 28
42 42 43 43 43 44 45 45 45 46 45 38 37 35 30 34 36 36 37 39 37 35 28 25 22 24 29 25 25 26 20 25 30 30 29 25 23 23 23 21 22 29 24 20 20 13 23 17 18 23 25 26 15 11 7 11 12 17 22 25 27 28 29 28 29 24 23 27 27 27 27 28 28 29 30 31 32 31 29 29 30 30 31 31 29 29 29
43 43 43 43 44 44 45 45 45 45 44 36 31 25 23 19 24 38 39 37 37 35 30 28 27 26 25 29 25 23 19 18 23 25 24 23 23 23 26 23 24 32 19 19 20 18 19 13 15 19 25 25 24 11 11 10 10 18 20 24 26 26 26 26 27 28 28 27 29 29 29 29 29 29 30 29 29 29 29 30 31 32 31 29 28 28 28
43 43 43 44 44 45 45 45 45 45 40 34 30 29 28 24 28 38 39 41 38 34 29 26 23 21 20 23 28 27 19 25 26 26 27 26 22 26 19 22 19 24 28 19 20 17 16 21 13 17 20 21 27 11 13 11 11 15 21 24 26 26 27 27 28 28 29 29 28 27 26 27 29 28 27 29 30 30 30 30 29 29 30 29 29 28 28
43 43 44 44 45 45 46 46 46 45 40 40 42 41 42 41 41 41 41 38 36 31 29 24 22 21 12 18 26 28 28 28 26 24 21 25 22 19 12 26 24 24 37 22 15 13 24 15 16 10 17 24 16 15 11 6 15 20 23 27 26 27 27 28 29 28 28 28 27 25 25 26 27 29 30 29 29 30 29 28 28 28 28 27 27 27 28
43 44 44 45 45 45 46 46 46 45 42 37 34 35 38 41 40 42 39 37 34 32 28 23 17 16 17 24 21 25 28 19 21 22 17 29 26 20 18 16 22 17 21 19 24 18 24 18 13 14 19 17 20 11 9 14 20 22 26 27 27 26 28 28 28 27 28 28 28 28 28 29 29 29 29 29 29 29 31 29 28 27 26 26 26 27 28
44 44 45 45 45 45 46 46 39 38 32 34 36 38 40 44 42 44 38 35 25 27 24 22 21 17 21 22 20 22 30 20 21 22 18 27 22 19 21 17 19 15 24 24 18 16 15 15 22 15 14 18 13 10 12 17 20 24 26 26 26 26 25 25 26 27 28 28 29 28 28 29 28 27 28 29 29 29 28 28 27 27 26 26 26 26 27
44 45 45 45 46 46 41 41 37 36 34 33 33 40 45 46 43 40 39 39 33 25 22 22 20 18 16 13 11 18 25 23 25 21 20 19 20 22 23 18 10 23 23 16 13 17 12 22 13 10 14 11 11 13 17 20 22 25 26 26 26 26 24 25 27 27 28 29 29 28 28 28 28 28 28 27 27 27 27 26 26 27 26 26 26 26 27
45 46 46 45 42 38 34 34 38 38 33 33 36 43 44 45 41 40 38 36 37 34 27 20 21 22 20 15 18 21 22 17 20 19 22 16 16 20 17 14 10 23 17 14 16 13 19 25 14 10 9 9 13 21 20 22 24 25 25 26 27 27 27 27 28 28 27 27 28 27 27 28 29 29 26 26 26 26 26 26 26 26 26 27 27 27 28
46 46 39 36 34 30 30 31 33 37 42 39 41 34 32 33 27 28 31 30 31 37 29 25 21 22 22 18 16 24 21 19 21 15 21 20 15 16 16 16 17 13 6 11 14 23 17 13 12 10 11 18 21 22 22 25 25 26 27 26 26 27 28 29 28 27 25 25 25 26 26 28 28 27 25 25 25 25 24 27 27 28 28 29 29 29 30
42 37 35 34 31 27 29 31 38 43 39 38 34 29 26 27 23 21 24 25 24 27 26 24 24 24 20 18 21 27 21 17 18 19 14 23 17 16 18 7 12 13 10 8 14 17 6 11 9 8 6 15 17 19 23 26 27 27 27 27 28 28 30 29 28 27 26 26 26 26 26 25 26 25 26 25 25 26 26 27 28 28 29 31 31 30 30
35 33 30 28 29 30 36 38 42 39 35 28 28 25 21 23 21 20 22 20 19 22 21 20 24 22 22 20 19 16 27 22 15 14 13 18 21 12 15 14 16 9 3 3 10 19 7 4 6 2 2 12 18 21 25 27 27 26 26 27 28 28 29 30 29 28 29 29 29 29 28 26 27 27 27 27 26 24 25 27 28 28 30 31 31 30 29
34 32 29 27 31 33 35 37 37 34 28 23 20 19 17 16 21 19 16 14 15 16 20 22 19 18 22 23 21 17 30 28 24 23 17 15 23 20 14 8 15 8 5 3 16 17 10 6 4 2 6 15 20 22 25 25 25 25 27 29 29 29 29 29 30 30 30 30 31 30 30 30 30 28 28 28 27 26 25 26 27 29 29 30 30 29 30
35 34 34 36 38 38 38 33 30 26 23 23 17 15 19 19 20 20 17 11 15 17 17 18 14 18 19 24 23 22 21 28 22 20 18 13 23 13 10 14 14 5 2 10 14 10 7 2 1 3 9 19 22 22 24 24 26 27 28 29 29 28 28 29 30 30 30 29 29 29 29 29 28 28 28 27 27 27 26 25 28 28 29 30 30 29 29
43 43 42 38 36 30 30 26 26 22 18 16 13 12 16 14 16 13 17 18 18 15 16 25 21 24 24 26 21 22 20 24 20 18 17 14 19 16 11 9 7 4 8 17 9 6 3 1 1 8 16 20 22 22 24 24 26 26 28 29 29 29 29 29 30 30 30 30 29 28 28 28 28 28 28 28 27 26 24 25 27 26 24 27 27 26 25
38 38 34 31 29 28 24 17 22 20 18 17 12 8 12 11 17 18 14 18 20 20 23 21 19 20 17 23 21 21 21 23 26 23 21 19 14 11 8 6 6 13 15 9 7 3 3 6 9 16 19 21 22 21 25 26 25 24 26 28 28 27 28 27 28 28 28 28 28 27 27 27 27 27 27 27 27 26 24 20 20 24 24 24 24 23 23
31 27 28 25 24 24 16 9 18 17 13 15 19 15 17 12 18 21 20 28 23 22 23 23 23 23 20 23 25 24 22 18 24 17 13 17 10 12 8 8 13 12 7 4 5 4 6 6 14 18 20 20 20 22 26 26 25 25 25 27 28 28 28 27 27 28 28 28 27 27 26 26 27 26 26 26 26 25 20 19 19 22 22 24 23 23 22
28 27 24 17 14 17 17 14 15 14 21 20 19 21 19 18 19 20 24 27 24 23 23 23 23 25 21 23 18 19 20 23 17 16 19 16 11 9 14 18 13 8 6 6 4 2 6 14 15 17 21 21 19 19 24 26 27 27 29 29 29 28 28 28 28 28 28 28 27 26 26 26 27 26 26 27 26 24 22 21 21 22 23 21 20 22 23
27 26 25 22 17 20 21 15 17 20 19 20 21 21 21 21 23 23 24 27 23 25 25 25 23 23 19 19 19 21 21 21 15 18 19 13 13 17 19 12 8 6 4 1 1 1 5 15 17 18 20 20 18 18 20 23 25 27 28 28 29 29 28 28 28 29 29 28 27 27 27 27 27 27 27 27 24 23 22 22 21 23 22 19 20 22 23
25 25 24 17 16 21 18 20 23 22 22 22 22 23 24 25 24 23 25 28 27 27 24 25 21 24 24 26 20 18 20 21 16 19 19 17 18 14 12 10 8 7 5 3 5 8 15 18 18 21 23 22 21 18 19 19 22 25 26 28 29 29 29 29 29 29 29 28 28 28 28 28 28 28 27 26 22 22 23 22 20 22 22 22 23 22 22
27 24 22 21 22 22 21 23 23 21 22 23 24 23 24 23 22 25 26 29 28 25 26 25 23 24 17 23 17 18 15 19 14 14 19 16 11 9 8 7 6 5 5 8 14 16 17 19 21 23 23 20 20 22 20 20 22 24 25 26 27 29 30 30 30 30 29 28 28 28 28 28 28 28 27 25 21 20 23 23 22 22 23 22 21 21 21
26 25 24 23 22 22 24 23 22 22 23 23 23 23 23 23 22 23 27 27 25 28 29 28 26 25 20 19 13 15 14 17 16 18 15 15 15 14 11 8 6 6 6 11 13 19 24 27 27 26 24 22 21 20 19 20 22 24 24 25 26 28 29 30 30 30 30 29 28 28 28 29 29 28 27 25 22 22 22 23 22 21 22 22 21 21 21
29 26 25 26 23 21 21 17 15 18 22 23 23 22 22 22 22 22 25 25 27 25 23 20 22 21 20 18 15 13 14 20 16 13 12 12 14 14 13 12 9 13 17 19 19 20 23 24 27 26 26 25 22 22 21 21 21 23 23 23 24 26 29 29 30 30 30 31 30 30 30 30 30 29 29 26 22 21 20 19 22 22 22 22 22 21 21
28 25 25 27 26 26 25 25 24 25 24 24 24 24 23 23 25 26 29 25 25 20 20 23 20 19 18 16 17 18 21 19 16 16 13 13 15 12 11 12 16 20 22 23 24 25 25 26 28 28 28 27 25 23 23 23 23 23 23 24 24 25 27 29 30 30 30 30 31 30 31 30 30 29 28 24 21 20 17 16 18 23 22 22 21 20 19